This demonstration page uses our WeatherBlox Daily Observations layout. Learn more.

Hourly Observations for October 15, 2020

Temp ( °F °C ) Dew Point ( °F °C ) Humidity (%) Winds ( mph kmh ) Pressure ( in mb ) Visibility ( mi km ) Precip ( " mm )
12:53 am 00:53 Cloudy 42 5.6 33 0.6 71 71 W 13 20 30.22 1024 10 16.0934 0 0
1:53 am 01:53 Cloudy 41 5 31 -0.6 67 67 W 14 22 30.25 1024 10 16.0934 0 0
2:53 am 02:53 Partly Cloudy 39 3.9 31 -0.6 73 73 W 13 20 30.25 1024 10 16.0934 0 0
3:53 am 03:53 Mostly Clear 38 3.3 30 -1.1 73 73 WNW 12 19 30.26 1025 10 16.0934 0 0
4:53 am 04:53 Mostly Cloudy 35 1.7 30 -1.1 82 82 NW 6 9 30.26 1025 10 16.0934 0 0
5:53 am 05:53 Clear 33 0.6 30 -1.1 89 89 NW 5 7 30.28 1026 10 16.0934 0 0
6:53 am 06:53 Clear 32 0 29 -1.7 88 88 NW 7 11 30.3 1026 10 16.0934 0 0
7:53 am 07:53 Sunny 34 1.1 31 -0.6 89 89 WNW 3 6 30.31 1026 10 16.0934 0 0
8:53 am 08:53 Sunny 39 3.9 31 -0.6 73 73 WNW 7 11 30.3 1026 10 16.0934 0 0
9:53 am 09:53 Cloudy 42 5.6 31 -0.6 65 65 WNW 5 7 30.3 1026 10 16.0934 0 0
10:53 am 10:53 Mostly Sunny 48 8.9 28 -2.2 46 46 NW 15 24 30.28 1026 10 16.0934 0 0
11:53 am 11:53 Partly Cloudy 49 9.4 29 -1.7 46 46 NW 13 20 30.28 1026 10 16.0934 0 0
12:53 pm 12:53 Cloudy 50 10 28 -2.2 43 43 WNW 18 30 30.27 1025 10 16.0934 0 0
1:53 pm 13:53 Cloudy 49 9.4 27 -2.8 43 43 WNW 15 24 30.27 1025 10 16.0934 0 0
2:53 pm 14:53 Mostly Cloudy 49 9.4 23 -5 36 36 WNW 17 28 30.28 1025 10 16.0934 0 0
3:53 pm 15:53 Mostly Cloudy 42 5.6 32 0 68 68 N 26 43 30.34 1027 10 16.0934 0 0
4:53 pm 16:53 Mostly Cloudy 45 7.2 26 -3.3 48 48 NNW 15 24 30.33 1027 10 16.0934 0 0
5:53 pm 17:53 Mostly Cloudy 43 6.1 29 -1.7 58 58 WNW 7 11 30.35 1028 10 16.0934 0 0
6:53 pm 18:53 Clear 37 2.8 27 -2.8 67 67 NW 5 7 30.38 1029 10 16.0934 0 0
7:53 pm 19:53 Clear 35 1.7 27 -2.8 72 72 Calm 30.39 1029 10 16.0934 0 0
8:53 pm 20:53 Partly Cloudy 34 1.1 27 -2.8 76 76 Calm 30.38 1029 10 16.0934 0 0
9:53 pm 21:53 Clear 36 2.2 27 -2.8 70 70 WNW 3 6 30.4 1029 10 16.0934 0 0
10:53 pm 22:53 Cloudy 36 2.2 27 -2.8 70 70 W 5 7 30.38 1029 10 16.0934 0 0
11:53 pm 23:53 Cloudy 35 1.7 27 -2.8 72 72 N 5 7 30.39 1029 10 16.0934 0 0

Powered by AerisWeather